FW3640 Weather Reports


time (UTC)temp
C
wind
direction
speed
KPH
gust
KPH
rain 1hr
cm
rain 24hr
cm
rain mn
cm
humidity
%
barometer
mb
20260510190616 28 23 1.6 3.2 0.00 0.00 0.00 29 1015.4
20260510185616 27 0.0 0.0 0.00 0.00 0.00 30 1015.4
20260510184616 27 68 1.6 4.8 0.00 0.00 0.00 33 1015.5
20260510183616 28 0.0 0.0 0.00 0.00 0.00 38 1015.7
20260510182616 27 90 1.6 4.8 0.00 0.00 0.00 30 1015.8
20260510181616 27 0.0 0.0 0.00 0.00 0.00 36 1015.9
20260510180616 26 315 1.6 4.8 0.00 0.00 0.00 32 1015.9
20260510175615 27 0.0 1.6 0.00 0.00 0.00 35 1015.9
20260510174615 28 315 1.6 6.4 0.00 0.00 0.00 34 1015.9
20260510173615 27 113 1.6 8.0 0.00 0.00 0.00 34 1015.9
20260510172616 27 0.0 1.6 0.00 0.00 0.00 39 1016.0
20260510171615 27 0.0 0.0 0.00 0.00 0.00 35 1016.1
20260510170615 27 293 3.2 6.4 0.00 0.00 0.00 33 1016.2
20260510165615 27 0.0 3.2 0.00 0.00 0.00 37 1016.3
20260510164615 27 315 1.6 3.2 0.00 0.00 0.00 33 1016.2
20260510163615 26 0.0 1.6 0.00 0.00 0.00 40 1016.2
20260510162635 26 338 1.6 4.8 0.00 0.00 0.00 37 1016.4
20260510161617 26 0.0 0.0 0.00 0.00 0.00 37 1016.6
20260510160637 26 315 1.6 6.4 0.00 0.00 0.00 43 1016.5
20260510155617 26 315 1.6 3.2 0.00 0.00 0.00 44 1016.5
20260510154617 25 0.0 3.2 0.00 0.00 0.00 43 1016.7
20260510153617 25 0.0 0.0 0.00 0.00 0.00 48 1016.8
20260510152617 25 0.0 0.0 0.00 0.00 0.00 51 1016.8
20260510151617 25 0.0 3.2 0.00 0.00 0.00 49 1016.8
20260510150617 25 0.0 1.6 0.00 0.00 0.00 50 1016.7
20260510145637 23 293 1.6 4.8 0.00 0.00 0.00 51 1016.7
20260510144617 24 0.0 1.6 0.00 0.00 0.00 61 1016.7
20260510143637 23 315 1.6 4.8 0.00 0.00 0.00 53 1016.6
20260510142617 23 293 3.2 6.4 0.00 0.00 0.00 55 1016.7
20260510141617 22 315 3.2 6.4 0.00 0.00 0.00 58 1016.7
20260510140617 22 293 1.6 4.8 0.00 0.00 0.00 61 1016.8
20260510135617 22 0.0 3.2 0.00 0.00 0.00 65 1016.8
20260510134617 21 0.0 0.0 0.00 0.00 0.00 68 1016.8
20260510133617 21 0.0 1.6 0.00 0.00 0.00 69 1016.6
20260510132617 20 0.0 0.0 0.00 0.00 0.00 72 1016.7
20260510131617 20 0.0 0.0 0.00 0.00 0.00 74 1016.6
20260510130617 20 0.0 1.6 0.00 0.00 0.00 75 1016.5
20260510125617 19 0.0 1.6 0.00 0.00 0.00 77 1016.3
20260510124617 18 293 1.6 3.2 0.00 0.00 0.00 78 1016.2
20260510123637 18 0.0 1.6 0.00 0.00 0.00 81 1016.3
20260510122617 17 0.0 0.0 0.00 0.00 0.00 83 1016.2
20260510121616 17 0.0 0.0 0.00 0.00 0.00 84 1016.1
20260510120617 17 0.0 0.0 0.00 0.00 0.00 85 1016.0
20260510115617 16 203 1.6 3.2 0.00 0.00 0.00 85 1015.9
20260510114617 16 0.0 0.0 0.00 0.00 0.00 86 1015.8
20260510113636 16 0.0 0.0 0.00 0.00 0.00 85 1015.7
20260510112616 15 0.0 0.0 0.00 0.00 0.00 84 1015.4
20260510111617 15 0.0 0.0 0.00 0.00 0.00 84 1015.2
20260510110636 15 0.0 0.0 0.00 0.00 0.00 83 1015.0
20260510105616 15 0.0 0.0 0.00 0.00 0.00 83 1015.0
20260510104617 15 0.0 0.0 0.00 0.00 0.00 83 1014.7
20260510103616 15 0.0 0.0 0.00 0.00 0.00 84 1014.6
20260510102617 15 0.0 0.0 0.00 0.00 0.00 84 1014.6
20260510101616 15 0.0 0.0 0.00 0.00 0.00 84 1014.4
20260510100616 15 0.0 0.0 0.00 0.00 0.00 83 1014.3
20260510095616 15 0.0 0.0 0.00 0.00 0.00 83 1014.1
20260510094616 15 0.0 0.0 0.00 0.00 0.00 83 1014.2
20260510093636 15 0.0 0.0 0.00 0.00 0.00 83 1014.0
20260510092616 15 0.0 0.0 0.00 0.00 0.00 83 1013.8
20260510091616 15 0.0 0.0 0.00 0.00 0.00 83 1013.7
20260510090616 15 0.0 0.0 0.00 0.00 0.00 83 1013.5
20260510085622 15 0.0 0.0 0.00 0.00 0.00 83 1013.4
20260510084616 15 0.0 0.0 0.00 0.00 0.00 83 1013.4
20260510083616 15 0.0 0.0 0.00 0.00 0.00 84 1013.3
20260510082636 15 0.0 0.0 0.00 0.00 0.00 83 1013.4
20260510081616 15 0.0 0.0 0.00 0.00 0.00 83 1013.3
20260510080616 15 0.0 0.0 0.00 0.00 0.00 83 1013.2
20260510075616 15 0.0 0.0 0.00 0.00 0.00 83 1013.2
20260510074616 15 0.0 0.0 0.00 0.00 0.00 83 1013.2
20260510073616 15 0.0 0.0 0.00 0.00 0.00 83 1013.0
20260510072616 15 0.0 0.0 0.00 0.00 0.00 82 1013.1
20260510071616 15 0.0 0.0 0.00 0.00 0.00 82 1012.9
20260510070616 15 0.0 0.0 0.00 0.00 0.00 82 1012.9
20260510065616 15 0.0 0.0 0.00 0.00 0.00 81 1013.0
20260510064616 15 0.0 0.0 0.00 0.00 0.00 82 1013.0
20260510063656 15 0.0 0.0 0.00 0.00 0.00 82 1013.1
20260510062616 15 0.0 0.0 0.00 0.00 0.00 82 1013.0
20260510061616 15 0.0 0.0 0.00 0.00 0.00 82 1013.0
20260510060615 15 0.0 0.0 0.00 0.00 0.00 82 1013.1
20260510055616 15 0.0 0.0 0.00 0.00 0.00 82 1013.1
20260510054616 15 0.0 0.0 0.00 0.00 0.00 82 1013.3
20260510053615 15 0.0 0.0 0.00 0.00 0.00 81 1013.3
20260510052616 15 0.0 0.0 0.00 0.00 0.00 81 1013.3
20260510051615 15 0.0 0.0 0.00 0.00 0.00 81 1013.4
20260510050616 15 0.0 0.0 0.00 0.00 0.00 80 1013.5
20260510045615 15 0.0 0.0 0.00 0.00 0.00 80 1013.5
20260510044615 15 0.0 0.0 0.00 0.00 0.00 80 1013.7
20260510043615 15 0.0 0.0 0.00 0.00 0.00 79 1013.6
20260510042615 15 0.0 0.0 0.00 0.00 0.00 79 1013.6
20260510041615 16 0.0 0.0 0.00 0.00 0.00 78 1013.5
20260510040615 16 0.0 0.0 0.00 0.00 0.00 78 1013.6
20260510035617 16 0.0 0.0 0.00 0.00 0.00 78 1013.5
20260510034616 16 0.0 0.0 0.00 0.00 0.00 78 1013.3
20260510033657 16 0.0 0.0 0.00 0.00 0.00 78 1013.4
20260510032637 16 0.0 0.0 0.00 0.00 0.00 77 1013.4
20260510031637 16 0.0 0.0 0.00 0.00 0.00 78 1013.3
20260510030616 16 0.0 0.0 0.00 0.00 0.00 77 1013.2
20260510025637 16 0.0 0.0 0.00 0.00 0.00 77 1013.2
20260510024616 16 0.0 0.0 0.00 0.00 0.00 77 1013.2
20260510023616 17 0.0 0.0 0.00 0.00 0.00 76 1013.1
20260510022616 17 0.0 0.0 0.00 0.00 0.00 76 1013.0
20260510021616 17 0.0 0.0 0.00 0.00 0.00 75 1013.0
20260510020616 17 0.0 0.0 0.00 0.00 0.00 75 1012.9
20260510015616 17 0.0 0.0 0.00 0.00 0.00 75 1012.8
20260510014616 17 0.0 0.0 0.00 0.00 0.00 75 1012.9
20260510013616 18 0.0 0.0 0.00 0.00 0.00 74 1012.6
20260510012616 18 0.0 0.0 0.00 0.00 0.00 74 1012.2
20260510011616 18 0.0 0.0 0.00 0.00 0.00 74 1012.1
20260510010616 18 0.0 0.0 0.00 0.00 0.00 73 1012.0
20260510005616 19 0.0 0.0 0.00 0.00 0.00 72 1011.9
20260510004616 19 0.0 0.0 0.00 0.00 0.00 71 1011.8
20260510003616 20 0.0 0.0 0.00 0.00 0.00 71 1011.9
20260510002616 20 0.0 0.0 0.00 0.00 0.00 70 1011.8
20260510001616 20 0.0 0.0 0.00 0.00 0.00 68 1011.9
20260510000616 21 0.0 0.0 0.00 0.00 0.00 67 1011.9
20260509235616 21 0.0 0.0 0.00 0.00 0.00 66 1011.8
20260509234616 21 0.0 0.0 0.00 0.00 0.00 65 1011.7
20260509233616 22 0.0 0.0 0.00 0.00 0.00 65 1011.6
20260509232636 22 0.0 0.0 0.00 0.00 0.00 65 1011.3
20260509231616 22 0.0 0.0 0.00 0.00 0.00 64 1011.2
20260509230616 22 0.0 0.0 0.00 0.00 0.00 65 1011.3
20260509225616 22 0.0 0.0 0.00 0.00 0.00 63 1011.2
20260509224616 22 0.0 0.0 0.00 0.00 0.00 62 1011.1
20260509223616 22 0.0 0.0 0.00 0.00 0.00 64 1011.1
20260509222616 22 0.0 0.0 0.00 0.00 0.00 63 1011.2
20260509221616 22 0.0 0.0 0.00 0.00 0.00 64 1011.1
20260509220616 22 0.0 0.0 0.00 0.00 0.00 63 1011.4
20260509215616 22 0.0 0.0 0.00 0.00 0.00 63 1011.3
20260509214616 22 0.0 0.0 0.00 0.00 0.00 61 1011.2
20260509213615 23 0.0 1.6 0.00 0.00 0.00 61 1011.1
20260509212616 23 0.0 1.6 0.00 0.00 0.00 60 1011.2
20260509211635 22 0.0 1.6 0.00 0.00 0.00 61 1011.1
20260509210615 22 0.0 1.6 0.00 0.00 0.00 61 1011.0
20260509205615 22 0.0 3.2 0.00 0.00 0.00 60 1011.1
20260509204615 22 0.0 0.0 0.00 0.00 0.00 61 1010.9
20260509203615 22 293 1.6 4.8 0.00 0.00 0.00 60 1011.1
20260509202615 22 0.0 0.0 0.00 0.00 0.00 63 1011.0
20260509201615 22 0.0 0.0 0.00 0.00 0.00 62 1011.2
20260509200635 21 0.0 0.0 0.00 0.00 0.00 62 1011.3
20260509195615 22 0.0 0.0 0.00 0.00 0.00 63 1011.4
20260509194617 22 0.0 0.0 0.00 0.00 0.00 61 1011.4
20260509193617 22 293 1.6 3.2 0.00 0.00 0.00 60 1011.4
20260509192617 21 0.0 0.0 0.00 0.00 0.00 63 1011.7
20260509191718 21 0.0 0.0 0.00 0.00 0.00 61 1011.9